| time (UTC) | temp C | wind direction | speed KPH | gust KPH | rain 1hr cm | rain 24hr cm | rain mn cm | humidity % | barometer mb |
| 20260504015011 | 16 | 0 | 0.0 | 1.6 | 0.00 | 0.13 | 0.13 | 60 | 1005.2 |
| 20260504014530 | 16 | 306 | 0.0 | 1.6 | 0.00 | 0.13 | 0.13 | 59 | 1005.1 |
| 20260504014014 | 16 | 295 | 0.0 | 1.6 | 0.00 | 0.13 | 0.13 | 59 | 1005.1 |
| 20260504013516 | 16 | 295 | 0.0 | 1.6 | 0.00 | 0.13 | 0.13 | 59 | 1005.0 |
| 20260504013035 | 16 | 0 | 0.0 | 1.6 | 0.00 | 0.13 | 0.13 | 58 | 1005.1 |
| 20260504012513 | 16 | 0 | 0.0 | 1.6 | 0.00 | 0.13 | 0.13 | 58 | 1005.0 |
| 20260504012013 | 16 | 295 | 0.0 | 1.6 | 0.00 | 0.13 | 0.13 | 58 | 1005.1 |
| 20260504011528 | 16 | 0 | 0.0 | 1.6 | 0.00 | 0.13 | 0.13 | 57 | 1005.0 |
| 20260504011016 | 17 | 0 | 0.0 | 1.6 | 0.00 | 0.13 | 0.13 | 56 | 1005.1 |
| 20260504010512 | 17 | 0 | 0.0 | 1.6 | 0.00 | 0.13 | 0.13 | 56 | 1005.0 |
| 20260504010028 | 17 | 289 | 0.0 | 1.6 | 0.00 | 0.13 | 0.13 | 55 | 1004.9 |
| 20260504005513 | 17 | 0 | 0.0 | 1.6 | 0.00 | 0.13 | 0.13 | 55 | 1005.0 |
| 20260504005011 | 17 | 282 | 0.0 | 1.6 | 0.00 | 0.13 | 0.13 | 54 | 1004.9 |
| 20260504004539 | 17 | 275 | 0.0 | 3.2 | 0.00 | 0.13 | 0.13 | 54 | 1004.9 |
| 20260504004013 | 17 | 0 | 0.0 | 3.2 | 0.00 | 0.13 | 0.13 | 53 | 1005.0 |
| 20260504003513 | 18 | 250 | 0.0 | 1.6 | 0.00 | 0.13 | 0.13 | 53 | 1005.0 |
| 20260504003030 | 18 | 284 | 0.0 | 1.6 | 0.00 | 0.13 | 0.13 | 52 | 1005.0 |
| 20260504002512 | 18 | 0 | 0.0 | 4.8 | 0.00 | 0.13 | 0.13 | 51 | 1005.0 |
| 20260504002012 | 18 | 0 | 1.6 | 4.8 | 0.00 | 0.13 | 0.13 | 50 | 1005.1 |
| 20260504001535 | 18 | 278 | 1.6 | 4.8 | 0.00 | 0.13 | 0.13 | 50 | 1005.1 |
| 20260504001013 | 18 | 285 | 1.6 | 4.8 | 0.00 | 0.13 | 0.13 | 49 | 1005.0 |
| 20260504000513 | 19 | 302 | 1.6 | 4.8 | 0.00 | 0.13 | 0.13 | 49 | 1005.0 |
| 20260504000031 | 19 | 294 | 0.0 | 3.2 | 0.00 | 0.13 | 0.13 | 49 | 1005.0 |
| 20260503235513 | 19 | 281 | 0.0 | 3.2 | 0.00 | 0.13 | 0.13 | 49 | 1004.9 |
| 20260503235013 | 19 | 274 | 1.6 | 6.4 | 0.00 | 0.13 | 0.13 | 47 | 1005.1 |
| 20260503234534 | 20 | 284 | 1.6 | 6.4 | 0.00 | 0.13 | 0.13 | 47 | 1005.0 |
| 20260503234011 | 20 | 0 | 1.6 | 6.4 | 0.00 | 0.13 | 0.13 | 47 | 1005.1 |
| 20260503233514 | 20 | 280 | 0.0 | 4.8 | 0.00 | 0.13 | 0.13 | 48 | 1005.0 |
| 20260503233027 | 20 | 276 | 1.6 | 4.8 | 0.00 | 0.13 | 0.13 | 46 | 1004.9 |
| 20260503232513 | 20 | 205 | 1.6 | 4.8 | 0.00 | 0.13 | 0.13 | 46 | 1005.0 |
| 20260503232014 | 20 | 0 | 0.0 | 4.8 | 0.00 | 0.13 | 0.13 | 46 | 1005.0 |
| 20260503231532 | 20 | 293 | 1.6 | 4.8 | 0.00 | 0.13 | 0.13 | 46 | 1005.1 |
| 20260503231013 | 20 | 293 | 1.6 | 8.0 | 0.00 | 0.13 | 0.13 | 46 | 1005.1 |
| 20260503230512 | 20 | 274 | 0.0 | 8.0 | 0.00 | 0.13 | 0.13 | 47 | 1005.1 |
| 20260503230030 | 20 | 252 | 1.6 | 6.4 | 0.00 | 0.13 | 0.13 | 46 | 1005.1 |
| 20260503225513 | 20 | 281 | 1.6 | 6.4 | 0.00 | 0.13 | 0.13 | 47 | 1005.2 |
| 20260503225011 | 19 | 0 | 0.0 | 3.2 | 0.00 | 0.13 | 0.13 | 47 | 1005.4 |
| 20260503224529 | 19 | 276 | 0.0 | 3.2 | 0.00 | 0.13 | 0.13 | 47 | 1005.2 |
| 20260503224013 | 18 | 275 | 0.0 | 6.4 | 0.00 | 0.13 | 0.13 | 47 | 1005.5 |
| 20260503223512 | 18 | 274 | 0.0 | 6.4 | 0.00 | 0.13 | 0.13 | 47 | 1005.4 |
| 20260503223028 | 19 | 274 | 1.6 | 6.4 | 0.00 | 0.13 | 0.13 | 47 | 1005.5 |
| 20260503222512 | 19 | 297 | 0.0 | 4.8 | 0.00 | 0.13 | 0.13 | 47 | 1005.5 |
| 20260503222013 | 19 | 0 | 1.6 | 4.8 | 0.00 | 0.13 | 0.13 | 47 | 1005.6 |
| 20260503221534 | 19 | 276 | 0.0 | 3.2 | 0.00 | 0.13 | 0.13 | 47 | 1005.7 |
| 20260503221010 | 19 | 0 | 0.0 | 3.2 | 0.00 | 0.13 | 0.13 | 46 | 1005.6 |
| 20260503220511 | 19 | 282 | 0.0 | 3.2 | 0.00 | 0.13 | 0.13 | 46 | 1005.7 |
| 20260503220037 | 19 | 130 | 0.0 | 3.2 | 0.00 | 0.13 | 0.13 | 46 | 1005.7 |
| 20260503215513 | 19 | 0 | 0.0 | 3.2 | 0.00 | 0.13 | 0.13 | 47 | 1005.9 |
| 20260503215012 | 19 | 0 | 0.0 | 4.8 | 0.00 | 0.13 | 0.13 | 47 | 1005.8 |
| 20260503214546 | 18 | 281 | 0.0 | 4.8 | 0.00 | 0.13 | 0.13 | 48 | 1005.8 |
| 20260503214011 | 18 | 262 | 0.0 | 3.2 | 0.00 | 0.13 | 0.13 | 49 | 1005.9 |
| 20260503213511 | 18 | 276 | 0.0 | 3.2 | 0.00 | 0.13 | 0.13 | 47 | 1006.1 |
| 20260503213034 | 18 | 0 | 0.0 | 6.4 | 0.00 | 0.13 | 0.13 | 47 | 1006.1 |
| 20260503212511 | 19 | 262 | 1.6 | 6.4 | 0.00 | 0.13 | 0.13 | 45 | 1006.1 |
| 20260503212018 | 19 | 288 | 1.6 | 9.7 | 0.00 | 0.13 | 0.13 | 46 | 1006.3 |
| 20260503211531 | 18 | 281 | 1.6 | 9.7 | 0.00 | 0.13 | 0.13 | 47 | 1006.4 |
| 20260503211010 | 19 | 278 | 1.6 | 6.4 | 0.00 | 0.13 | 0.13 | 48 | 1006.5 |
| 20260503210510 | 19 | 286 | 1.6 | 6.4 | 0.00 | 0.13 | 0.13 | 46 | 1006.5 |
| 20260503210028 | 18 | 275 | 1.6 | 6.4 | 0.00 | 0.13 | 0.13 | 47 | 1006.6 |
| 20260503205517 | 18 | 272 | 1.6 | 4.8 | 0.00 | 0.13 | 0.13 | 45 | 1006.8 |
| 20260503205013 | 18 | 265 | 1.6 | 8.0 | 0.00 | 0.13 | 0.13 | 46 | 1006.9 |
| 20260503204532 | 17 | 276 | 1.6 | 8.0 | 0.00 | 0.13 | 0.13 | 47 | 1006.9 |
| 20260503204011 | 17 | 288 | 3.2 | 8.0 | 0.00 | 0.13 | 0.13 | 46 | 1007.1 |
| 20260503203513 | 17 | 285 | 3.2 | 8.0 | 0.00 | 0.13 | 0.13 | 45 | 1007.3 |
| 20260503203031 | 18 | 277 | 1.6 | 8.0 | 0.00 | 0.13 | 0.13 | 44 | 1007.3 |
| 20260503202518 | 17 | 274 | 1.6 | 8.0 | 0.00 | 0.13 | 0.13 | 47 | 1007.3 |
| 20260503202014 | 17 | 282 | 1.6 | 8.0 | 0.00 | 0.13 | 0.13 | 47 | 1007.5 |
| 20260503201530 | 17 | 274 | 1.6 | 8.0 | 0.00 | 0.13 | 0.13 | 46 | 1007.6 |
| 20260503201012 | 17 | 301 | 3.2 | 9.7 | 0.00 | 0.13 | 0.13 | 45 | 1007.6 |
| 20260503200512 | 18 | 294 | 3.2 | 9.7 | 0.00 | 0.13 | 0.13 | 45 | 1007.6 |
| 20260503200031 | 18 | 274 | 1.6 | 8.0 | 0.00 | 0.13 | 0.13 | 49 | 1007.6 |
| 20260503195511 | 18 | 278 | 1.6 | 8.0 | 0.00 | 0.13 | 0.13 | 48 | 1007.6 |
| 20260503195013 | 17 | 275 | 1.6 | 9.7 | 0.00 | 0.13 | 0.13 | 50 | 1007.6 |
| 20260503194532 | 17 | 294 | 3.2 | 9.7 | 0.00 | 0.13 | 0.13 | 48 | 1007.7 |
| 20260503194013 | 17 | 253 | 1.6 | 4.8 | 0.00 | 0.13 | 0.13 | 49 | 1007.8 |
| 20260503193512 | 17 | 0 | 0.0 | 4.8 | 0.00 | 0.13 | 0.13 | 53 | 1007.8 |
| 20260503193032 | 17 | 289 | 0.0 | 4.8 | 0.00 | 0.13 | 0.13 | 53 | 1007.9 |
| 20260503192514 | 16 | 284 | 1.6 | 4.8 | 0.00 | 0.13 | 0.13 | 56 | 1008.0 |
| 20260503192013 | 16 | 278 | 1.6 | 3.2 | 0.00 | 0.13 | 0.13 | 58 | 1008.1 |
| 20260503191529 | 16 | 283 | 0.0 | 3.2 | 0.00 | 0.13 | 0.13 | 57 | 1008.2 |
| 20260503191012 | 16 | 274 | 0.0 | 4.8 | 0.00 | 0.13 | 0.13 | 60 | 1008.2 |
| 20260503190513 | 15 | 287 | 0.0 | 4.8 | 0.00 | 0.13 | 0.13 | 64 | 1008.3 |
| 20260503190039 | 15 | 300 | 1.6 | 4.8 | 0.00 | 0.13 | 0.13 | 65 | 1008.4 |
| 20260503185513 | 14 | 288 | 0.0 | 4.8 | 0.00 | 0.13 | 0.13 | 67 | 1008.5 |
| 20260503185016 | 13 | 0 | 1.6 | 4.8 | 0.00 | 0.13 | 0.13 | 70 | 1008.7 |
| 20260503184531 | 13 | 290 | 0.0 | 3.2 | 0.00 | 0.13 | 0.13 | 72 | 1008.7 |
| 20260503184012 | 13 | 271 | 0.0 | 3.2 | 0.00 | 0.13 | 0.13 | 76 | 1008.8 |
| 20260503183512 | 12 | 286 | 0.0 | 1.6 | 0.00 | 0.13 | 0.13 | 78 | 1009.0 |
| 20260503183036 | 12 | 288 | 0.0 | 1.6 | 0.00 | 0.13 | 0.13 | 78 | 1009.0 |
| 20260503182512 | 12 | 1 | 0.0 | 1.6 | 0.00 | 0.13 | 0.13 | 80 | 1009.0 |
| 20260503182011 | 11 | 0 | 0.0 | 1.6 | 0.03 | 0.13 | 0.13 | 80 | 1009.1 |
| 20260503181552 | 11 | 0 | 0.0 | 1.6 | 0.03 | 0.13 | 0.13 | 82 | 1009.4 |
| 20260503181011 | 10 | 219 | 0.0 | 1.6 | 0.03 | 0.13 | 0.13 | 84 | 1009.4 |
| 20260503180513 | 10 | 0 | 0.0 | 1.6 | 0.03 | 0.13 | 0.13 | 85 | 1009.5 |
| 20260503180041 | 10 | 0 | 0.0 | 1.6 | 0.03 | 0.13 | 0.13 | 86 | 1009.6 |
| 20260503175516 | 10 | 0 | 0.0 | 1.6 | 0.03 | 0.13 | 0.13 | 85 | 1009.8 |
| 20260503175013 | 10 | 300 | 0.0 | 1.6 | 0.03 | 0.13 | 0.13 | 85 | 1010.2 |
| 20260503174531 | 9 | 0 | 0.0 | 3.2 | 0.05 | 0.13 | 0.13 | 85 | 1010.5 |
| 20260503174013 | 9 | 300 | 0.0 | 3.2 | 0.05 | 0.13 | 0.13 | 85 | 1010.8 |
| 20260503173513 | 9 | 0 | 0.0 | 3.2 | 0.05 | 0.13 | 0.13 | 86 | 1011.1 |
| 20260503173029 | 9 | 263 | 0.0 | 1.6 | 0.05 | 0.13 | 0.13 | 86 | 1011.2 |
| 20260503172510 | 9 | 210 | 0.0 | 4.8 | 0.03 | 0.10 | 0.10 | 86 | 1011.3 |
| 20260503172012 | 9 | 281 | 0.0 | 4.8 | 0.03 | 0.10 | 0.10 | 86 | 1011.5 |
| 20260503171530 | 9 | 0 | 0.0 | 4.8 | 0.03 | 0.10 | 0.10 | 86 | 1011.6 |
| 20260503171013 | 9 | 0 | 0.0 | 1.6 | 0.03 | 0.10 | 0.10 | 86 | 1011.5 |
| 20260503170513 | 9 | 279 | 0.0 | 3.2 | 0.05 | 0.10 | 0.10 | 86 | 1011.5 |
| 20260503151012 | 11 | 273 | 0.0 | 6.4 | 0.00 | 0.00 | 0.00 | 62 | 1012.7 |
| 20260503150514 | 11 | 335 | 1.6 | 6.4 | 0.00 | 0.00 | 0.00 | 62 | 1012.7 |
| 20260503131011 | 9 | 279 | 0.0 | 4.8 | 0.00 | 0.00 | 0.00 | 63 | 1013.5 |
| 20260503130510 | 9 | 275 | 1.6 | 4.8 | 0.00 | 0.00 | 0.00 | 64 | 1013.5 |
| 20260503110516 | 7 | 285 | 0.0 | 1.6 | 0.00 | 0.00 | 0.00 | 66 | 1013.0 |
| 20260503090513 | 6 | 0 | 0.0 | 1.6 | 0.00 | 0.00 | 0.00 | 65 | 1013.6 |
| 20260503081528 | 6 | 274 | 0.0 | 1.6 | 0.00 | 0.00 | 0.00 | 63 | 1013.9 |
| 20260503081014 | 6 | 0 | 0.0 | 1.6 | 0.00 | 0.00 | 0.00 | 63 | 1013.9 |
| 20260503080513 | 6 | 0 | 0.0 | 1.6 | 0.00 | 0.00 | 0.00 | 64 | 1013.8 |
| 20260503072512 | 6 | 0 | 0.0 | 0.0 | 0.00 | 0.00 | 0.00 | 62 | 1013.9 |
| 20260503072014 | 6 | 0 | 0.0 | 0.0 | 0.00 | 0.00 | 0.00 | 62 | 1013.9 |
| 20260503071530 | 6 | 0 | 0.0 | 0.0 | 0.00 | 0.00 | 0.00 | 62 | 1013.9 |
| 20260503071013 | 6 | 0 | 0.0 | 0.0 | 0.00 | 0.00 | 0.00 | 61 | 1014.0 |
| 20260503070514 | 6 | 0 | 0.0 | 1.6 | 0.00 | 0.00 | 0.00 | 61 | 1014.0 |
| 20260503055012 | 7 | 0 | 0.0 | 0.0 | 0.00 | 0.00 | 0.00 | 59 | 1014.6 |
| 20260503054536 | 7 | 0 | 0.0 | 0.0 | 0.00 | 0.00 | 0.00 | 58 | 1014.7 |
| 20260503054012 | 7 | 0 | 0.0 | 1.6 | 0.00 | 0.00 | 0.00 | 58 | 1014.7 |
| 20260503053512 | 7 | 0 | 0.0 | 1.6 | 0.00 | 0.00 | 0.00 | 58 | 1014.7 |
| 20260503053028 | 7 | 0 | 0.0 | 0.0 | 0.00 | 0.00 | 0.00 | 58 | 1014.8 |
| 20260503052511 | 7 | 0 | 0.0 | 0.0 | 0.00 | 0.00 | 0.00 | 58 | 1014.9 |
| 20260503052012 | 7 | 0 | 0.0 | 0.0 | 0.00 | 0.00 | 0.00 | 58 | 1014.9 |
| 20260503051533 | 7 | 0 | 0.0 | 0.0 | 0.00 | 0.00 | 0.00 | 58 | 1015.0 |
| 20260503051011 | 7 | 0 | 0.0 | 0.0 | 0.00 | 0.00 | 0.00 | 58 | 1015.0 |
| 20260503050513 | 7 | 0 | 0.0 | 1.6 | 0.00 | 0.00 | 0.00 | 58 | 1015.1 |
| 20260503050032 | 7 | 0 | 0.0 | 1.6 | 0.00 | 0.00 | 0.00 | 58 | 1015.0 |
| 20260503045516 | 7 | 0 | 0.0 | 0.0 | 0.00 | 0.00 | 0.00 | 59 | 1015.1 |
| 20260503045012 | 7 | 0 | 0.0 | 0.0 | 0.00 | 0.00 | 0.00 | 60 | 1015.1 |
| 20260503044530 | 7 | 0 | 0.0 | 0.0 | 0.00 | 0.00 | 0.00 | 58 | 1014.9 |
| 20260503044012 | 7 | 0 | 0.0 | 0.0 | 0.00 | 0.00 | 0.00 | 58 | 1015.0 |
| 20260503043513 | 7 | 0 | 0.0 | 0.0 | 0.00 | 0.00 | 0.00 | 58 | 1015.0 |
| 20260503043029 | 7 | 0 | 0.0 | 0.0 | 0.00 | 0.00 | 0.00 | 59 | 1015.1 |
| 20260503042514 | 7 | 0 | 0.0 | 0.0 | 0.00 | 0.00 | 0.00 | 59 | 1015.2 |
| 20260503042013 | 7 | 0 | 0.0 | 0.0 | 0.00 | 0.00 | 0.00 | 59 | 1015.2 |
| 20260503041534 | 7 | 0 | 0.0 | 0.0 | 0.00 | 0.00 | 0.00 | 58 | 1015.4 |
| 20260503041013 | 7 | 0 | 0.0 | 0.0 | 0.00 | 0.00 | 0.00 | 58 | 1015.3 |
| 20260503040519 | 7 | 0 | 0.0 | 0.0 | 0.00 | 0.00 | 0.00 | 60 | 1015.3 |
| 20260503040032 | 7 | 0 | 0.0 | 0.0 | 0.00 | 0.00 | 0.00 | 58 | 1015.3 |
| 20260503035513 | 7 | 0 | 0.0 | 0.0 | 0.00 | 0.00 | 0.00 | 59 | 1015.4 |
| 20260503035012 | 7 | 0 | 0.0 | 0.0 | 0.00 | 0.00 | 0.00 | 59 | 1015.3 |
| 20260503034530 | 7 | 0 | 0.0 | 0.0 | 0.00 | 0.00 | 0.00 | 58 | 1015.3 |
| 20260503034014 | 7 | 0 | 0.0 | 0.0 | 0.00 | 0.00 | 0.00 | 59 | 1015.4 |
| 20260503033511 | 7 | 0 | 0.0 | 0.0 | 0.00 | 0.00 | 0.00 | 58 | 1015.3 |
| 20260503033036 | 7 | 0 | 0.0 | 0.0 | 0.00 | 0.00 | 0.00 | 58 | 1015.4 |
| 20260503032511 | 7 | 0 | 0.0 | 0.0 | 0.00 | 0.00 | 0.00 | 58 | 1015.4 |
| 20260503032010 | 7 | 0 | 0.0 | 0.0 | 0.00 | 0.00 | 0.00 | 57 | 1015.4 |
| 20260503031532 | 7 | 0 | 0.0 | 0.0 | 0.00 | 0.00 | 0.00 | 57 | 1015.5 |
| 20260503031013 | 7 | 0 | 0.0 | 0.0 | 0.00 | 0.00 | 0.00 | 57 | 1015.4 |
| 20260503030513 | 7 | 0 | 0.0 | 0.0 | 0.00 | 0.00 | 0.00 | 57 | 1015.5 |
| 20260503030034 | 7 | 0 | 0.0 | 0.0 | 0.00 | 0.00 | 0.00 | 57 | 1015.5 |
| 20260503025512 | 7 | 0 | 0.0 | 0.0 | 0.00 | 0.00 | 0.00 | 57 | 1015.5 |
| 20260503025013 | 7 | 0 | 0.0 | 0.0 | 0.00 | 0.00 | 0.00 | 57 | 1015.5 |
| 20260503024537 | 7 | 0 | 0.0 | 0.0 | 0.00 | 0.00 | 0.00 | 58 | 1015.5 |
| 20260503024011 | 8 | 0 | 0.0 | 0.0 | 0.00 | 0.00 | 0.00 | 58 | 1015.4 |
| 20260503023512 | 8 | 0 | 0.0 | 0.0 | 0.00 | 0.00 | 0.00 | 57 | 1015.5 |
| 20260503023028 | 8 | 0 | 0.0 | 0.0 | 0.00 | 0.00 | 0.00 | 56 | 1015.4 |
| 20260503022512 | 8 | 0 | 0.0 | 0.0 | 0.00 | 0.00 | 0.00 | 56 | 1015.3 |
| 20260503022012 | 8 | 0 | 0.0 | 0.0 | 0.00 | 0.00 | 0.00 | 56 | 1015.2 |
| 20260503021529 | 8 | 0 | 0.0 | 0.0 | 0.00 | 0.00 | 0.00 | 56 | 1015.3 |
| 20260503021011 | 8 | 0 | 0.0 | 0.0 | 0.00 | 0.00 | 0.00 | 55 | 1015.3 |
| 20260503020514 | 8 | 0 | 0.0 | 0.0 | 0.00 | 0.00 | 0.00 | 55 | 1015.2 |
| 20260503020030 | 8 | 0 | 0.0 | 0.0 | 0.00 | 0.00 | 0.00 | 55 | 1015.3 |
| 20260503015516 | 8 | 0 | 0.0 | 0.0 | 0.00 | 0.00 | 0.00 | 55 | 1015.2 |